User: anonymous   Login
Location: La Silve
(44.2414°N, 5.8889°E)
Time: 11:01:23
(UTC+00:00)
Language:

YAOGAN 1 - Orbit

View from above orbital plane
View from above orbital plane
View from above satellite
View from above satellite

Ground track
Ground track

The orbit data is extracted from the following two-line orbital elements,

1 29092U 06015A   21061.85258617  .00000118  00000-0  20995-4 0  9995
2 29092  97.9201  90.2408 0001444  91.0838 269.0541 14.83133654803036
Epoch (UTC): 02 March 2021 20:27:43
Eccentricity: 0.0001444
inclination: 97.9201°
perigee height: 618 km
apogee height: 620 km
right ascension of ascending node: 90.2408°
argument of perigee: 91.0838°
revolutions per day: 14.83133654
mean anomaly at epoch: 269.0541°
orbit number at epoch: 80303

The dashed part of the orbit path shows where the satellite is in the earth's shadow,  

DLR